Flag for Lebanon Weather past 2 weeks in Beirut, Lebanon

Now
70 °F

Partly sunny.


Feels Like: 70 °F
Forecast: 61 / 64 °F
Wind: 13 mph from Southwest

Location: Beirut Airport

Current Time: Dec 18, 2014 at 3:48:32 PM

Latest Report: Dec 18, 2014 at 3:00 PM


Visibility: 5 mi

Pressure: 30.09 "Hg

Humidity: 43%

Dew point: 46 °F

Location of BeirutLocation

Historic Weather in Beirut — Graph

°F

Beirut temperature yesterday

Maximum temperature yesterday: 68 °F (at 11:00 AM)
Minimum temperature yesterday: 57 °F (at 3:00 AM)
Average temperature yesterday: 62 °F

Past Weeks' High & Low Weather Summary

 TemperatureHumidityPressure
High81 °F (Dec 8, 10:00 PM)88% (Dec 12, 8:00 PM)30.30 "Hg (Dec 12, 8:00 PM)
Low57 °F (Dec 14, 5:00 AM)24% (Dec 8, 11:00 PM)29.80 "Hg (Dec 9, 1:00 AM)
Average66 °F61%30.10 "Hg
* Reported Dec 3 2:00 PM — Dec 18 2:00 PM, Beirut, Weather by CustomWeather, © 2014

Note: Actual official high and low records may vary slightly from our data, if they occured in-between our weather recording intervals... More about our weather records

Advertising

Beirut weather history for previous 24 hours

 ConditionsComfort  
Time TempWeatherWind HumidityBarometerVisibility
2:00 PM
Dec 18
70 °FPartly sunny.13 mph46%30.07 "Hg5 mi
1:00 PM70 °FScattered clouds.14 mph43%30.09 "Hg5 mi
12:00 PM70 °FScattered clouds.1 mph50%30.09 "Hg4 mi
11:00 AM70 °FPartly sunny.1 mph43%30.09 "HgN/A
10:00 AM70 °FPartly sunny.2 mph38%30.12 "HgN/A
9:00 AM64 °FPartly sunny.6 mph49%30.15 "Hg6 mi
8:00 AM61 °FPartly sunny.5 mph48%30.12 "HgN/A
7:00 AM61 °FSunny.5 mph48%30.12 "Hg10 mi
6:00 AM61 °FClear.3 mph52%30.12 "Hg10 mi
5:00 AM61 °FPassing clouds.3 mph48%30.12 "HgN/A
4:00 AM59 °FPassing clouds.5 mph55%30.12 "HgN/A
3:00 AM61 °FPassing clouds.3 mph48%30.15 "HgN/A
2:00 AM59 °FPassing clouds.3 mph55%30.15 "HgN/A
1:00 AM61 °FPassing clouds.3 mph52%30.15 "HgN/A
12:00 AM61 °FPassing clouds.3 mph55%30.18 "HgN/A
11:00 PM
Dec 17
61 °FPassing clouds.2 mph59%30.18 "HgN/A
10:00 PM63 °FPassing clouds.3 mph56%30.18 "HgN/A
9:00 PM63 °FPassing clouds.2 mph56%30.21 "HgN/A
8:00 PM63 °FClear.6 mph56%30.21 "Hg10 mi
7:00 PM63 °FPassing clouds.5 mph56%30.21 "HgN/A
6:00 PM63 °FPassing clouds.6 mph59%30.21 "HgN/A
5:00 PM66 °FPassing clouds.3 mph52%30.24 "HgN/A
4:00 PM66 °FScattered clouds.5 mph52%30.24 "HgN/A
3:00 PM66 °FScattered clouds.6 mph56%30.21 "HgN/A
Weather by CustomWeather, © 2014

See weather overviewHow to use our weather pages